sat.trackr.live / text

‹ back to catalog

STARLINK-35623

NORAD 66138 · 2025-237AA

PAYLOAD ACTIVE UNKNOWN

§ Identity

Operator
Country
US
Launch date
2025-10-22
Launch site
AFWTR
Launch vehicle
Mass (kg)
RCS (m²)

Purposes: comms

External: N2YO · Heavens-Above · Gunter

§ Orbital elements

Epoch: 2026-09-20T13:23:41.107488Z

Period
93.85 min
Inclination
53.1580°
Eccentricity
0.0000512
Mean motion
15.34415391 rev/d
Perigee alt
462.3 km
Apogee alt
463.0 km
Semi-major
6,840.8 km
B*
6.8215e-4
RAAN
213.2068°
Arg perigee
39.1600°
Mean anomaly
320.9439°
Rev number
5,246

§ Raw data

STARLINK-356231 66138U 25237AA  26263.55811467  .00022753  00000+0  68215-3 0  99922 66138  53.1580 213.2068 0000512  39.1600 320.9439 15.34415391 52460

JSON: /api/v1/satellites/66138 · /tle

For live sub-satellite position, see the globe view (requires WebGL).

§ Visibility from observer

Set your observer location to see the next 7 days of passes ≥ 10°. The values pass through the URL so the page stays shareable.

No JS? Fill the form by hand. The geolocation button needs JavaScript.